DMSP 5D-2 F13 DEB, 40610

Orbit data source: Space-Track

DMSP 5D-2 F13 DEB, 40610 is space debris in SSO originally from a launch on Fri, 24 Mar 1995 UTC launched from the Air Force Western Test Range (AFWTR). Debris objects in space refer to the collection of defunct objects orbiting the Earth. Examples of debris include non-operational satellites, rocket bodies, and fragments generated from explosions, collisions, or faulty payload assembly.

Loading next visibility...
Identifier
40610, 1995-015FH
Orbit
SSO
Country
Flag of USUS
Related business
Manufacturer
Unknown
Mission
Spacecraft
Bus & Motor
Unknown
Mass
Unknown
Launch date (UTC)
1995-03-24 (31 years ago)
Launch vehicle
Unknown
Launch site
Air Force Western Test Range (AFWTR)
Object type
Payload
Rocket body
Debris
Shape & HBR
Unknown shape, 0.1 m
Radar Cross Section
Small (<0.1 m²)

Expand to show TLE details & history
Last TLE update: 3 days ago

TLE from 3 days ago
0 DMSP 5D-2 F13 DEB
1 40610U 95015FH  25349.56305369  .00003844  00000-0  12383-2 0  9999
2 40610  98.7022  22.3820 0025811 226.0821 133.8236 14.39660493553077
Epoch: 2025-12-15T13:30Z
TLE epoch observation values (Epoch: 2025-12-15T13:30:47.838Z)
Latitude
-0.00004°
Longitude
95.22285°
Altitude
775.346 km
Speed
7.46 km/s
True Right ascension
01h 29m 31s
True Declination
0° 00' 00"
Sunlit
Object was in daylight at epoch
Visualization orbit readout
Latitude
Unknown
Longitude
Unknown
Altitude
Unknown
Speed
Unknown
Apparent Right ascension
Unknown
Apparent Declination
Unknown
Sunlit
N/A
Visualization observer readout
Local Sidereal Time
01:50:02
Azimuth
Unknown
Elevation
Unknown
Doppler factor
Unknown
Orbital elements
Apogee altitude
775.168 km
Perigee altitude
738.337 km
Semi-major axis
7,134.889 km
Eccentricity
0.00258
Inclination
98.7022°
RAAN
22.382°
Arg. of periapsis
226.0821°
True anomaly
134.03652°
Mean anomaly
133.8236°
Eccentric anomaly
133.93011°
Mean motion
3.60132 °/min
Orbital period
99.96 mins
BSTAR
0.0012383
Loading maneuver chart data...
Computing Atmospheric mass density...

Documentation

Showing up to 5 results
|